Station CASM1 - 8418150 - Portland, ME Image indicating link to RSS feed of recent meteorological observations for station CASM1


Conditions at CASM1 as of
(2:30 pm EDT)
1830 GMT on 05/28/2024:
     

Click on the graph icon in the table below to see a time series plot of the last five days of that observation.

5-day plot - Wind Direction Wind Direction (WDIR): S ( 180 deg true )
5-day plot - Wind Speed Wind Speed (WSPD): 9.9 kts
5-day plot - Wind Gust Wind Gust (GST): 12.0 kts
5-day plot - Atmospheric Pressure Atmospheric Pressure (PRES):29.58 in
5-day plot - Air Temperature Air Temperature (ATMP): 68.7 °F
5-day plot - Water Temperature Water Temperature (WTMP): 53.1 °F
5-day plot - Wind Speed at 10 Meters Wind Speed at 10 meters (WSPD10M): 9.7 kts
5-day plot - Wind Speed at 20 Meters Wind Speed at 20 meters (WSPD20M): 11.7 kts
5-day plot -  Wind Speed, Wind Gust and Atmospheric Pressure Combined plot of Wind Speed, Gust, and Air Pressure
NOS Water Level Observation Network Water Level
Previous observations
TIME
(EDT)
5-day plot - Wind Direction
WDIR
 
5-day plot - Wind Speed
WSPD
kts
5-day plot - Wind Gust
GST
kts
5-day plot - Wave Height
WVHT
ft
5-day plot - Dominant Wave Period
DPD
sec
5-day plot - Average Wave Period
APD
sec
5-day plot - Mean Wave Direction
MWD
 
5-day plot - Atmospheric Pressure
PRES
in
5-day plot - Pressure Tendency
PTDY
in
5-day plot - Air Temperature
ATMP
°F
5-day plot - Water Temperature
WTMP
°F
5-day plot - Dew Point
DEWP
°F
5-day plot - Salinity
SAL
psu
5-day plot - Visibility
VIS
nmi
5-day plot - Tide (above MLLW)
TIDE
ft
2024-05-28 02:24 pm S 8.9 11.1----29.57- 67.8 53.1----
2024-05-28 02:18 pm S 8.0 12.0----29.57- 67.3 53.2----
2024-05-28 02:12 pm S 11.1 14.0----29.57- 67.5 53.4----
2024-05-28 02:06 pm S 11.1 15.0----29.57- 67.3 53.4----
2024-05-28 02:00 pm S 12.0 15.0----29.57- 67.6 53.4----
2024-05-28 01:54 pm S 13.0 18.1----29.58- 66.9 53.4----
2024-05-28 01:48 pm-------29.58-- 53.4----
2024-05-28 01:42 pm-------29.57-- 53.6----
2024-05-28 01:36 pm-------29.58-- 53.6----
2024-05-28 01:30 pm-------29.58-- 53.6----
2024-05-28 01:24 pm-------29.58-- 53.6----
2024-05-28 01:18 pm-------29.58-- 53.6----
2024-05-28 01:12 pm-------29.58-- 53.6----
2024-05-28 01:06 pm-------29.57-- 53.6----
2024-05-28 01:00 pm-------29.57-- 53.4----
2024-05-28 12:54 pm-------29.57-- 53.4----
2024-05-28 12:48 pm-------29.58-- 53.4----
2024-05-28 12:42 pm-------29.58-- 53.4----
2024-05-28 12:36 pm-------29.58-- 53.4----
2024-05-28 12:30 pm-------29.58-- 53.6----
2024-05-28 12:24 pm-------29.57-- 54.0----
2024-05-28 12:18 pm-------29.58-- 54.3----
2024-05-28 12:12 pm-------29.58-- 54.9----
2024-05-28 12:06 pm-------29.58-- 55.0----
2024-05-28 12:00 pm-------29.58-- 55.8----
2024-05-28 06:30 am S 5.1 7.0----29.63- 58.3 53.1----
2024-05-28 06:24 am S 6.0 8.0----29.63- 58.1 52.9----
2024-05-28 06:18 am S 8.0 9.9----29.63- 58.1 52.7----
2024-05-28 06:12 amSSW 8.0 9.9----29.63- 58.1 52.5----
2024-05-28 06:06 amSSW 9.9 13.0----29.64- 58.1 52.7----
2024-05-28 06:00 amSSW 8.9 12.0----29.63-0.02 58.3 53.1----
2024-05-28 05:54 amSSW 8.9 12.0----29.64- 58.5 53.4----
2024-05-28 05:48 amSSW 8.9 12.0----29.63- 58.6 53.4----
2024-05-28 05:42 amSSW 8.0 12.0----29.63- 58.6 53.4----
2024-05-28 05:36 am S 11.1 13.0----29.63- 58.8 53.2----
2024-05-28 05:30 amSSW 9.9 13.0----29.63- 58.6 53.1----
2024-05-28 05:24 am S 9.9 14.0----29.63- 58.5 52.9----
2024-05-28 05:18 am S 11.1 13.0----29.63- 58.3 52.7----
2024-05-28 05:12 am S 12.0 15.0----29.63- 58.1 52.5----
2024-05-28 05:06 am S 11.1 13.0----29.63- 58.3 52.5----
2024-05-28 05:00 am S 11.1 13.0----29.63-0.05 58.3 52.5----
2024-05-28 04:54 am S 11.1 15.0----29.63- 58.5 52.7----
2024-05-28 04:48 am S 12.0 15.0----29.63- 58.5 52.3----
2024-05-28 04:42 am S 13.0 15.0----29.63- 58.5 52.3----
2024-05-28 04:36 am S 12.0 15.0----29.63- 58.5 52.2----
2024-05-28 04:30 am S 12.0 15.0----29.63- 58.5 52.2----
2024-05-28 04:24 am S 13.0 15.9----29.63- 58.5 52.2----
2024-05-28 04:18 am S 14.0 17.1----29.63- 58.6 52.0----
2024-05-28 04:12 am S 15.0 19.0----29.64- 58.6 52.0----
2024-05-28 04:06 am S 13.0 15.9----29.64- 58.6 52.0----
2024-05-28 04:00 am S 14.0 17.1----29.64-0.07 58.5 52.0----
2024-05-28 03:54 amSSW 12.0 17.1----29.65- 58.6 52.0----
2024-05-28 03:48 am S 14.0 17.1----29.65- 58.8 52.0----
2024-05-28 03:42 am S 14.0 20.0----29.65- 58.8 52.2----
2024-05-28 03:36 amSSW 14.0 18.1----29.65- 58.6 52.2----
2024-05-28 03:30 am S 15.0 18.1----29.65- 58.6 52.2----
2024-05-28 03:24 am S 17.1 20.0----29.65- 58.5 52.2----
2024-05-28 03:18 am S 17.1 21.0----29.66- 59.0 52.0----
2024-05-28 03:12 am S 15.0 19.0----29.66- 59.0 52.2----
2024-05-28 03:06 am S 14.0 19.0----29.66- 59.4 52.2----
2024-05-28 03:00 am S 15.0 22.0----29.66-0.07 59.5 52.2----
2024-05-28 02:54 am S 17.1 24.1----29.66- 59.7 52.2----
2024-05-28 02:48 am S 15.0 21.0----29.66- 59.7 52.2----
2024-05-28 02:42 am S 18.1 25.1----29.67- 59.7 52.3----
2024-05-28 02:36 am S 19.0 25.1----29.67- 59.7 52.7----
2024-05-28 02:30 am S 18.1 25.1----29.67- 59.7 52.7----
2024-05-28 02:24 am S 17.1 22.0----29.67- 60.1 52.9----
2024-05-28 02:18 am S 12.0 18.1----29.67- 60.1 52.9----
2024-05-28 02:12 am S 15.0 22.9----29.68- 60.1 53.1----
2024-05-28 02:06 am S 15.0 20.0----29.67- 60.3 52.9----
2024-05-28 02:00 am S 15.9 22.9----29.68-0.08 60.1 53.1----
2024-05-28 01:54 am S 15.9 24.1----29.68- 60.1 53.1----
2024-05-28 01:48 am S 20.0 25.1----29.68- 60.1 53.1----
2024-05-28 01:42 amSSE 18.1 31.1----29.68- 59.9 53.1----
2024-05-28 01:36 am S 19.0 25.1----29.68- 59.7 53.2----
2024-05-28 01:30 amSSE 20.0 26.0----29.69- 59.9 53.2----
2024-05-28 01:24 amSSE 18.1 24.1----29.69- 59.4 53.2----
2024-05-28 01:18 am S 15.0 31.1----29.70- 59.5 53.2----
2024-05-28 01:12 am S 22.0 32.1----29.70- 59.9 53.2----
2024-05-28 01:06 am S 15.0 21.0----29.70- 59.9 53.6----
2024-05-28 01:00 am S 15.9 22.0----29.71-0.08 59.7 53.6----
2024-05-28 12:54 am S 18.1 25.1----29.72- 60.1 53.6----
2024-05-28 12:48 amSSE 18.1 24.1----29.71- 60.4 53.6----
2024-05-28 12:42 amSSE 20.0 27.0----29.71- 60.4 53.8----
2024-05-28 12:36 amSSE 21.0 28.9----29.71- 60.4 54.0----
2024-05-28 12:30 amSSE 15.0 25.1----29.71- 60.3 54.3----
2024-05-28 12:24 amSSE 17.1 24.1----29.72- 60.3 54.7----
2024-05-28 12:18 am SE 15.9 22.9----29.72- 59.9 54.5----
2024-05-28 12:12 amSSE 15.9 22.0----29.72- 59.9 54.3----
2024-05-28 12:06 amSSE 15.0 21.0----29.72- 59.7 54.0----
2024-05-28 12:00 am SE 14.0 22.0----29.73-0.08 59.5 53.6----
2024-05-27 11:54 pm SE 17.1 22.9----29.73- 59.2 53.6----
2024-05-27 11:48 pm SE 15.9 24.1----29.73- 59.0 53.8----
2024-05-27 11:42 pm SE 15.9 22.0----29.74- 58.8 54.0----
2024-05-27 11:36 pm SE 18.1 24.1----29.74- 58.8 54.1----
2024-05-27 11:30 pm SE 14.0 18.1----29.75- 59.2 54.3----
2024-05-27 11:24 pm SE 14.0 25.1----29.75- 59.0 54.7----
2024-05-27 11:18 pm SE 15.0 20.0----29.75- 59.4 55.0----
2024-05-27 11:12 pm SE 15.9 22.0----29.75- 59.5 55.0----
2024-05-27 11:06 pm SE 18.1 22.9----29.76- 59.9 55.2----
2024-05-27 11:00 pm SE 15.9 24.1----29.76-0.07 59.9 55.2----
2024-05-27 10:54 pmSSE 17.1 22.9----29.76- 60.1 55.0----
2024-05-27 10:48 pm SE 18.1 25.1----29.77- 60.1 55.2----
2024-05-27 10:42 pmSSE 14.0 21.0----29.77- 59.9 55.2----
2024-05-27 10:36 pm SE 17.1 26.0----29.77- 60.1 55.2----
2024-05-27 10:30 pm SE 14.0 21.0----29.78- 59.9 55.2----
2024-05-27 10:24 pm SE 13.0 20.0----29.78- 59.7 55.2----
2024-05-27 10:18 pm SE 15.9 18.1----29.78- 59.7 55.2----
2024-05-27 10:12 pm SE 13.0 20.0----29.79- 59.9 55.4----
2024-05-27 10:06 pm SE 12.0 20.0----29.79- 59.5 55.4----
2024-05-27 10:00 pm SE 13.0 17.1----29.79-0.06 59.5 55.4----
2024-05-27 09:54 pm SE 14.0 18.1----29.79- 59.4 55.4----
2024-05-27 09:48 pm SE 13.0 18.1----29.80- 59.2 55.4----
2024-05-27 09:42 pm SE 12.0 15.9----29.80- 59.0 55.2----
2024-05-27 09:36 pm SE 14.0 17.1----29.80- 59.0 55.2----
2024-05-27 09:30 pmSSE 14.0 18.1----29.81- 58.8 55.2----
2024-05-27 09:24 pm SE 11.1 19.0----29.81- 58.5 55.2----
2024-05-27 09:18 pm SE 14.0 18.1----29.81- 58.5 55.4----
2024-05-27 09:12 pm SE 13.0 18.1----29.81- 58.1 55.4----
2024-05-27 09:06 pm SE 12.0 17.1----29.81- 57.9 55.4----
2024-05-27 09:00 pm SE 11.1 15.0----29.81- 57.7 55.6----
2024-05-27 08:54 pm SE 9.9 15.9----29.81- 57.7 55.4----
2024-05-27 08:48 pm SE 9.9 17.1----29.81- 57.7 55.4----
2024-05-27 08:42 pm SE 9.9 15.0----29.81- 57.7 55.4----
2024-05-27 08:36 pm SE 9.9 14.0----29.81- 57.7 55.4----
2024-05-27 08:30 pm SE 9.9 14.0----29.81- 57.7 55.4----
2024-05-27 08:24 pm SE 12.0 17.1----29.82- 57.7 55.4----
2024-05-27 08:18 pm SE 11.1 17.1----29.82- 57.7 55.4----
2024-05-27 08:12 pm SE 12.0 17.1----29.83- 57.6 55.2----
2024-05-27 08:06 pm SE 12.0 15.9----29.83- 57.6 55.2----
2024-05-27 08:00 pm SE 9.9 14.0----29.83-0.07 57.4 55.2----
2024-05-27 07:54 pm SE 11.1 14.0----29.83- 57.4 55.2----
2024-05-27 07:48 pm SE 12.0 15.9----29.83-- 55.2----
2024-05-27 07:42 pm SE 12.0 15.9----29.84-- 55.2----
2024-05-27 07:36 pm SE 8.9 15.0----29.84-- 55.2----
2024-05-27 07:30 pm SE 9.9 14.0----29.85- 57.0 55.2----
2024-05-27 07:24 pm SE 8.0 14.0----29.85- 56.7 55.2----
2024-05-27 07:18 pm SE 8.9 13.0----29.85- 56.5 55.0----
2024-05-27 07:12 pm SE 8.9 12.0----29.86- 56.5 55.0----
2024-05-27 07:06 pm SE 6.0 9.9----29.86- 56.5 54.9----
2024-05-27 07:00 pmESE 6.0 8.9----29.85-0.07 56.5 54.9----
2024-05-27 06:54 pmESE 5.1 8.0----29.86- 56.5 54.9----
2024-05-27 06:48 pm E 6.0 11.1----29.86- 56.5 54.9----
2024-05-27 06:42 pm E 6.0 8.0----29.87- 56.5 54.7----
2024-05-27 06:36 pm E 6.0 8.0----29.87- 56.3 54.7----
2024-05-27 06:30 pm NE 4.1 7.0----29.87- 56.1 54.5----
2024-05-27 06:24 pmENE 6.0 7.0----29.88- 56.1 54.3----
2024-05-27 06:18 pmENE 6.0 7.0----29.88- 56.1 54.3----
2024-05-27 06:12 pmENE 6.0 8.0----29.88- 55.9 54.3----
2024-05-27 06:06 pm E 7.0 8.0----29.88- 55.8 54.1----
2024-05-27 06:00 pm--------- 56.1 54.0----
2024-05-27 05:54 pm--------- 56.1 54.0----
2024-05-27 05:48 pm E 7.0 9.9----29.88- 55.9 53.8----
2024-05-27 05:42 pm E 8.0 8.9----29.88- 55.9 53.8----
2024-05-27 05:36 pm E 6.0 7.0----29.88- 55.8 53.8----
2024-05-27 05:30 pm E 6.0 7.0----29.89-- 53.8----
2024-05-27 05:24 pm E 6.0 7.0----29.89-- 53.8----
2024-05-27 05:18 pmENE 6.0 8.9----29.90- 54.9 53.6----
2024-05-27 05:12 pmENE 8.0 9.9----29.90- 55.0 53.6----
2024-05-27 05:06 pmENE 8.0 8.9----29.90- 55.2 53.6----
2024-05-27 05:00 pmENE 7.0 8.9----29.90-0.09 55.0 53.6----
2024-05-27 04:54 pmENE 8.0 11.1----29.90- 54.9 53.4----
2024-05-27 04:48 pmENE 8.0 9.9----29.90- 54.5 53.4----
2024-05-27 04:42 pmENE 9.9 12.0----29.91- 54.1 53.4----
2024-05-27 04:36 pm NE 8.9 13.0----29.91- 54.1 53.4----
2024-05-27 04:30 pm-------29.91- 54.1 53.4----
2024-05-27 04:24 pm-------29.91- 54.0 53.6----
2024-05-27 04:18 pm NE 12.0 14.0----29.92- 54.0 53.6----
2024-05-27 04:12 pmENE 11.1 12.0----29.92- 54.0 53.6----
2024-05-27 04:06 pm NE 9.9 12.0----29.93- 53.8 53.6----
2024-05-27 04:00 pm NE 9.9 13.0----29.93-0.08 53.6 53.6----
2024-05-27 03:54 pm NE 12.0 15.0----29.93- 53.6 53.6----
2024-05-27 03:48 pm NE 12.0 14.0------ 53.6 53.6----
2024-05-27 03:42 pm NE 12.0 14.0------ 53.4 53.6----
2024-05-27 03:36 pm NE 9.9 13.0------ 53.4 53.4----
2024-05-27 03:30 pm NE 9.9 13.0----29.95- 53.4 53.4----
2024-05-27 03:24 pm NE 11.1 13.0----29.95- 53.4 53.4----
2024-05-27 03:18 pm NE 12.0 13.0----29.95- 53.4 53.4----
2024-05-27 03:12 pm NE 11.1 13.0----29.95- 53.4 53.4----
2024-05-27 03:06 pm NE 11.1 14.0----29.96- 53.4 53.4----
2024-05-27 03:00 pmENE 9.9 14.0----29.96-0.05 53.4 53.4----
2024-05-27 02:54 pmENE 11.1 14.0----29.96- 53.4 53.4----